Weather History for Middlebury State AP, Middlebu, VT

Change the Weather History Date:

Thursday, February 27, 2014

  Actual Average (KMPV) Record (KMPV)
Temperature  
Mean Temperature 14 °F 23 °F  
Max Temperature 22 °F 33 °F 52 °F (2000)
Min Temperature 5 °F 12 °F -22 °F (1963)
Degree Days  
Heating Degree Days 51 42  
Month to date heating degree days 1220  
Since 1 July heating degree days 5865  
Moisture  
Dew Point -2 °F    
Average Humidity 50    
Maximum Humidity 94    
Minimum Humidity 33    
Precipitation  
Precipitation 0.00 in 0.08 in 0.49 in (1997)
Month to date precipitation 1.97  
Year to date precipitation 4.42  
Sea Level Pressure  
Sea Level Pressure 29.67 in    
Wind  
Wind Speed 5 mph (SE)    
Max Wind Speed 17 mph    
Max Gust Speed 25 mph    
Visibility 10 miles    
Events Snow    
T = Trace of Precipitation, MM = Missing Value Source: NWS Daily Summary

Daily Weather History Graph

Daily Weather History Graph

Search for Another Location

Airport:

Trip Planner

Search our weather history database for the weather conditions in past years. The results will help you decide how hot, cold, wet, or windy it might be!

Date:

Astronomy

Feb. 27, 2014 Rise Set
Actual Time 6:32 AM EST 5:38 PM EST
Civil Twilight 6:03 AM EST 6:07 PM EST
Nautical Twilight 5:30 AM EST 6:40 PM EST
Astronomical Twilight 4:56 AM EST 7:14 PM EST
Moon 5:05 AM EST (2/27) 3:58 PM EST (2/27)
Length of Visible Light 12h 03m
Length of Day
11h 05m
Waning Crescent, 4% of the Moon is Illuminated
Feb 27
Waning Crescent
Mar 1
New
Mar 8
First Quarter
Mar 16
Full
Mar 23
Last Quarter

Hourly Weather History & Observations

Time (EST) Temp. Windchill Dew Point Humidity Pressure Visibility Wind Dir Wind Speed Gust Speed Precip Events Conditions
12:15 AM 9.1 °F - -2.0 °F 61% 29.80 in 10.0 mi Calm Calm - N/A   Clear
12:35 AM 9.1 °F - -1.3 °F 63% 29.79 in 10.0 mi Calm Calm - N/A   Scattered Clouds
12:55 AM 8.8 °F - -0.9 °F 65% 29.79 in 10.0 mi Calm Calm - N/A   Overcast
1:15 AM 8.8 °F 2.2 °F -0.8 °F 65% 29.79 in 10.0 mi East 3.5 mph - N/A   Overcast
1:35 AM 9.7 °F 1.4 °F -1.5 °F 61% 29.79 in 10.0 mi ESE 4.6 mph - N/A   Overcast
1:55 AM 9.5 °F 1.2 °F -2.2 °F 59% 29.78 in 10.0 mi ESE 4.6 mph - N/A   Overcast
2:15 AM 9.5 °F 1.2 °F -4.2 °F 54% 29.77 in 10.0 mi East 4.6 mph - N/A   Overcast
2:35 AM 10.0 °F 1.8 °F -4.7 °F 51% 29.76 in 10.0 mi ESE 4.6 mph - N/A   Overcast
2:55 AM 10.4 °F 0.8 °F -5.3 °F 49% 29.76 in 10.0 mi ESE 5.8 mph - N/A   Overcast
3:15 AM 10.4 °F - -5.4 °F 49% 29.74 in 10.0 mi Calm Calm - N/A   Overcast
3:30 AM 10.2 °F 3.8 °F -5.3 °F 50% 29.74 in 10.0 mi ESE 3.5 mph - N/A   Overcast
3:55 AM 9.9 °F - -4.5 °F 52% 29.73 in 10.0 mi Calm Calm - N/A   Mostly Cloudy
4:15 AM 9.9 °F - -5.1 °F 51% 29.72 in 10.0 mi Calm Calm - N/A   Scattered Clouds
4:35 AM 10.0 °F 3.6 °F -6.2 °F 48% 29.69 in 10.0 mi ESE 3.5 mph - N/A   Mostly Cloudy
4:55 AM 9.9 °F 3.4 °F -6.0 °F 49% 29.69 in 10.0 mi ESE 3.5 mph - N/A   Overcast
5:15 AM 9.3 °F 2.8 °F -4.9 °F 53% 29.68 in 10.0 mi East 3.5 mph - N/A   Overcast
5:35 AM 9.5 °F 3.0 °F -6.9 °F 48% 29.67 in 10.0 mi East 3.5 mph - N/A   Overcast
5:55 AM 9.5 °F -0.3 °F -6.5 °F 48% 29.66 in 10.0 mi ESE 5.8 mph - N/A   Mostly Cloudy
6:15 AM 9.3 °F 1.0 °F -6.5 °F 49% 29.64 in 10.0 mi SE 4.6 mph - N/A   Scattered Clouds
6:35 AM 9.5 °F 1.2 °F -7.1 °F 47% 29.63 in 10.0 mi SE 4.6 mph - N/A   Mostly Cloudy
6:55 AM 10.0 °F 3.6 °F -8.7 °F 43% 29.62 in 10.0 mi SE 3.5 mph - N/A   Overcast
7:15 AM 9.5 °F 1.2 °F -5.8 °F 50% 29.62 in 10.0 mi SE 4.6 mph - N/A   Overcast
7:35 AM 10.2 °F -0.6 °F -7.4 °F 45% 29.62 in 10.0 mi SE 6.9 mph - N/A   Overcast
7:55 AM 11.7 °F 0.0 °F -8.0 °F 41% 29.62 in 10.0 mi SE 8.1 mph - N/A   Scattered Clouds
8:15 AM 13.5 °F -0.2 °F -8.1 °F 38% 29.62 in 10.0 mi ESE 11.5 mph - N/A   Mostly Cloudy
8:35 AM 14.5 °F 1.1 °F -8.3 °F 36% 29.60 in 10.0 mi ESE 11.5 mph - N/A   Mostly Cloudy
8:55 AM 15.3 °F 0.8 °F -8.3 °F 35% 29.59 in 10.0 mi ESE 13.8 mph 19.6 mph N/A   Scattered Clouds
9:15 AM 15.4 °F 0.4 °F -7.2 °F 36% 29.59 in 10.0 mi ESE 15.0 mph 21.9 mph N/A   Scattered Clouds
9:35 AM 15.4 °F 2.3 °F -5.4 °F 39% 29.59 in 10.0 mi ESE 11.5 mph 18.4 mph N/A   Overcast
9:55 AM 15.8 °F 2.1 °F -4.9 °F 40% 29.59 in 10.0 mi SSE 12.7 mph 19.6 mph N/A   Overcast
10:15 AM 16.7 °F 2.6 °F -2.4 °F 43% 29.59 in 10.0 mi SE 13.8 mph 19.6 mph N/A   Overcast
10:35 AM 17.1 °F 2.0 °F -0.4 °F 46% 29.58 in 10.0 mi ESE 16.1 mph 25.3 mph N/A   Overcast
10:55 AM 18.3 °F 4.6 °F 0.7 °F 46% 29.57 in 10.0 mi SE 13.8 mph 20.7 mph N/A   Mostly Cloudy
11:15 AM 19.4 °F 6.6 °F 2.1 °F 47% 29.56 in 10.0 mi SSE 12.7 mph 23.0 mph N/A   Mostly Cloudy
11:35 AM 20.1 °F 5.9 °F 2.1 °F 46% 29.56 in 10.0 mi SSE 16.1 mph 23.0 mph N/A   Scattered Clouds
11:55 AM 20.3 °F 7.2 °F 2.3 °F 46% 29.55 in 10.0 mi SE 13.8 mph 20.7 mph N/A   Clear
12:15 PM 20.8 °F 7.9 °F 0.9 °F 42% 29.55 in 10.0 mi SE 13.8 mph 20.7 mph N/A   Clear
12:35 PM 20.7 °F 7.1 °F 2.5 °F 45% 29.54 in 10.0 mi SE 15.0 mph 21.9 mph N/A   Scattered Clouds
12:55 PM 21.9 °F 8.2 °F 2.1 °F 42% 29.53 in 10.0 mi SSE 16.1 mph 24.2 mph N/A   Overcast
1:15 PM 22.1 °F 10.6 °F 1.2 °F 40% 29.53 in 10.0 mi SSE 11.5 mph 18.4 mph N/A   Mostly Cloudy
1:35 PM 22.6 °F 11.3 °F 0.7 °F 39% 29.53 in 10.0 mi SSE 11.5 mph 19.6 mph N/A   Mostly Cloudy
1:55 PM 22.1 °F 8.0 °F -2.6 °F 34% 29.53 in 10.0 mi SSE 17.3 mph 24.2 mph N/A   Overcast
2:15 PM 21.6 °F - 2.5 °F 44% 29.53 in 10.0 mi Calm Calm - N/A   Overcast
2:35 PM 21.9 °F 14.5 °F 2.1 °F 42% 29.54 in 10.0 mi South 5.8 mph - N/A   Overcast
2:55 PM 21.9 °F 11.0 °F 5.0 °F 48% 29.54 in 10.0 mi SE 10.4 mph - N/A Snow Light Snow
3:15 PM 22.1 °F 10.6 °F 5.0 °F 48% 29.54 in 10.0 mi SSE 11.5 mph 19.6 mph N/A   Mostly Cloudy
3:35 PM 21.2 °F 12.6 °F 5.4 °F 51% 29.55 in 10.0 mi SSE 6.9 mph - N/A   Overcast
3:55 PM 21.4 °F 8.0 °F 7.3 °F 55% 29.55 in 10.0 mi SE 15.0 mph 21.9 mph N/A   Overcast
4:15 PM 19.8 °F 10.8 °F 12.2 °F 72% 29.56 in 4.0 mi SE 6.9 mph - N/A Snow Light Snow
4:35 PM 20.3 °F 9.0 °F 10.4 °F 66% 29.57 in 10.0 mi SE 10.4 mph 17.3 mph N/A   Overcast
4:55 PM 20.1 °F 12.3 °F 10.4 °F 66% 29.56 in 10.0 mi ESE 5.8 mph - N/A   Overcast
5:15 PM 19.9 °F 11.1 °F 11.5 °F 70% 29.58 in 7.0 mi SSE 6.9 mph - N/A Snow Light Snow
5:35 PM 19.4 °F - 12.4 °F 74% 29.59 in 10.0 mi Calm Calm - N/A   Overcast
5:55 PM 18.7 °F 8.6 °F 14.7 °F 85% 29.61 in 1.0 mi West 8.1 mph - N/A Snow Snow
6:15 PM 17.4 °F 8.0 °F 16.0 °F 94% 29.63 in 0.5 mi SW 6.9 mph - N/A Snow Light Snow
6:35 PM 16.9 °F 11.5 °F 9.1 °F 72% 29.66 in 10.0 mi WSW 3.5 mph - N/A   Overcast
6:55 PM 16.7 °F - 5.0 °F 60% 29.68 in 10.0 mi Calm Calm - N/A   Mostly Cloudy
7:15 PM 15.8 °F - 4.6 °F 61% 29.69 in 10.0 mi Calm Calm - N/A   Mostly Cloudy
7:35 PM 14.9 °F - 3.6 °F 61% 29.71 in 10.0 mi Calm Calm - N/A   Overcast
7:55 PM 14.5 °F 5.7 °F 1.8 °F 57% 29.73 in 10.0 mi South 5.8 mph - N/A   Mostly Cloudy
8:15 PM 13.5 °F 4.4 °F 0.3 °F 56% 29.75 in 10.0 mi South 5.8 mph - N/A   Scattered Clouds
8:35 PM 12.9 °F 6.9 °F -3.5 °F 48% 29.76 in 10.0 mi South 3.5 mph - N/A   Scattered Clouds
8:55 PM 12.9 °F 5.2 °F -6.3 °F 42% 29.78 in 10.0 mi SSW 4.6 mph - N/A   Mostly Cloudy
9:15 PM 12.7 °F 5.0 °F -8.1 °F 39% 29.80 in 10.0 mi SSW 4.6 mph - N/A   Mostly Cloudy
9:35 PM 12.0 °F 2.7 °F -9.2 °F 38% 29.83 in 10.0 mi SW 5.8 mph 19.6 mph N/A   Overcast
9:55 PM 10.8 °F - -9.8 °F 39% 29.85 in 10.0 mi Calm Calm - N/A   Mostly Cloudy
10:15 PM 9.7 °F 1.4 °F -12.1 °F 37% 29.86 in 10.0 mi WSW 4.6 mph - N/A   Scattered Clouds
10:30 PM 9.5 °F 1.2 °F -13.2 °F 35% 29.87 in 10.0 mi SSW 4.6 mph - N/A   Clear
10:55 PM 7.7 °F -0.9 °F -16.2 °F 33% 29.88 in 10.0 mi South 4.6 mph 16.1 mph N/A   Clear
11:15 PM 6.6 °F -3.7 °F -13.9 °F 39% 29.89 in 10.0 mi South 5.8 mph - N/A   Clear
11:35 PM 6.3 °F -2.6 °F -13.0 °F 41% 29.89 in 10.0 mi SE 4.6 mph - N/A   Clear
11:55 PM 5.7 °F -3.2 °F -11.7 °F 45% 29.90 in 10.0 mi SE 4.6 mph - N/A   Clear